Dewpoint
58 58 56 56 55 54 54 53 52 48 43 41 40 39 38 38 47 48 52 57 57 59 56 54 53 51 50 48 47 47 46 45 45 44 44 44 43 43 43 43 43 43 43
60 60 56 56 56 55 54 53 52 45 43 40 38 38 38 37 43 47 50 53 56 57 55 51 51 49 47 46 46 43 45 46 45 45 43 44 45 44 43 43 43 42 43
60 60 58 56 55 55 54 53 49 45 43 41 38 39 38 37 36 40 47 50 52 55 55 52 52 51 49 48 47 47 47 47 47 46 46 46 49 49 47 47 46 43 44
60 59 58 56 56 54 50 46 44 42 40 40 40 39 39 37 35 34 42 46 46 49 53 54 50 47 45 42 37 37 39 40 42 42 44 45 47 47 46 45 46 48 48
61 60 59 58 55 52 49 46 46 43 43 43 41 41 39 39 36 35 35 37 38 45 45 51 49 48 42 37 34 35 38 39 40 42 44 44 46 45 45 44 43 44 46
60 61 60 57 56 52 49 47 44 46 43 44 42 41 41 41 39 37 36 35 37 38 40 40 40 41 46 40 38 37 36 37 38 39 41 42 43 42 42 42 42 43 43
60 60 57 57 53 50 48 47 46 44 44 45 43 44 45 44 40 39 39 38 37 37 37 38 38 38 43 45 42 40 39 39 39 38 39 40 40 40 41 41 41 41 41
60 60 56 55 54 50 48 47 46 46 47 45 44 42 40 41 42 41 40 39 38 37 36 37 37 36 36 39 40 40 40 38 37 37 36 38 38 39 39 39 39 40 40
60 60 56 55 54 51 48 47 47 47 45 46 44 42 38 36 36 38 41 40 38 38 37 37 38 37 37 36 41 44 45 42 39 36 36 36 36 36 38 39 39 39 39
58 58 58 55 53 51 48 49 49 48 46 45 45 44 41 39 35 33 35 35 36 38 38 39 38 38 38 37 40 42 44 42 39 38 37 35 34 34 36 38 38 38 38
57 57 57 55 52 50 49 50 49 48 47 44 41 39 39 40 38 34 33 32 35 35 35 36 37 36 36 36 39 42 43 41 40 39 37 35 33 34 35 36 37 37 38
56 56 57 55 52 51 50 50 49 46 44 43 41 41 38 35 33 32 33 32 32 32 32 31 31 31 34 36 39 42 43 41 40 38 36 35 34 34 34 35 35 35 35
55 56 56 54 53 52 51 50 49 46 43 41 41 40 40 37 36 35 34 34 32 32 30 32 31 32 32 34 36 42 43 41 39 37 37 36 35 34 34 34 32 32 33
55 55 54 53 53 51 50 49 47 45 44 43 41 41 40 40 39 37 35 34 30 31 30 29 31 32 32 32 35 43 39 40 39 39 38 36 36 35 34 32 31 31 31
55 54 54 53 51 49 49 48 47 45 45 45 43 44 44 42 41 39 37 34 33 29 29 30 30 31 31 31 34 39 35 39 40 40 39 38 36 35 34 33 30 29 30
55 55 53 50 48 48 47 47 46 46 45 45 46 46 42 41 40 40 37 36 34 32 30 31 31 31 30 29 33 36 32 37 40 40 39 38 37 36 35 32 30 29 29
55 53 49 48 47 48 48 47 46 46 46 46 45 44 41 39 39 38 37 36 34 34 32 32 31 31 29 30 30 32 34 34 36 40 38 38 38 38 37 35 31 30 29
50 49 48 48 49 48 48 47 47 47 46 44 42 41 39 38 38 38 37 35 34 34 33 31 31 30 30 31 31 30 31 31 31 34 38 38 37 37 36 34 33 33 31
50 50 49 48 48 48 49 48 46 45 44 42 40 38 38 36 34 34 34 34 35 34 33 31 30 30 29 29 27 27 28 30 32 35 36 36 37 37 36 34 34 34 33
49 49 49 48 48 48 47 46 45 43 42 40 38 35 33 32 32 32 32 32 32 32 31 30 29 28 27 28 27 26 27 28 29 29 31 30 32 35 36 35 35 35 34
49 48 47 47 47 46 45 44 43 38 31 29 31 30 29 32 36 34 30 29 29 29 29 29 29 27 27 26 25 27 27 28 29 31 31 30 24 23 24 26 29 34 34
47 46 47 47 45 43 39 37 34 30 29 28 27 28 29 31 30 32 34 33 32 29 28 27 29 29 29 28 28 28 27 29 25 30 28 23 23 21 22 23 27 30 32
45 45 45 44 43 41 35 34 33 30 28 28 27 28 29 30 33 31 31 30 30 32 30 29 29 30 30 29 30 31 29 28 27 26 21 20 22 21 23 21 29 31 31
42 42 41 41 40 33 35 34 32 30 30 31 32 30 29 28 28 29 27 25 26 27 29 29 29 31 31 32 33 32 30 28 26 24 22 19 21 21 23 25 29 30 31
39 39 40 37 33 33 33 33 32 31 29 28 29 29 28 27 29 31 28 27 27 27 29 31 32 32 34 34 35 34 30 27 20 23 24 23 23 22 23 23 25 27 29
39 35 33 33 32 29 31 30 29 28 27 27 27 27 28 28 30 31 28 27 25 25 26 27 28 29 30 30 33 33 31 28 24 20 24 23 21 22 19 22 22 23 22
Lifted_Index
3 4 4 4 3 2 1 1 1 2 3 5 7 8 9 9 9 9 9 8 6 5 6 7 7 8 9 10 11 11 11 11 11 11 12 12 12 12 13 13 13 12 12
3 3 3 3 2 1 1 1 1 2 4 6 8 8 9 10 10 10 9 8 7 6 7 7 8 8 9 10 10 11 11 11 11 11 11 11 11 11 11 12 12 12 12
2 1 1 1 0 0 1 1 2 4 6 7 8 8 9 10 10 10 10 9 9 8 8 8 8 9 10 10 11 11 11 11 11 11 11 10 10 10 10 10 10 11 11
0 -0 -0 -0 0 0 1 1 2 4 7 7 8 8 8 9 9 10 10 10 10 10 9 9 10 10 11 12 13 13 13 12 12 12 11 10 9 9 10 10 10 10 9
-0 -1 -1 -0 0 1 1 2 3 5 7 7 7 8 8 8 8 9 10 11 11 11 11 11 11 12 12 13 14 14 13 13 13 12 11 11 10 10 10 10 10 10 10
-0 -0 -1 -0 0 1 1 2 4 6 7 7 7 7 7 7 7 8 9 10 11 12 12 12 12 12 13 13 13 13 13 12 12 12 12 11 11 11 11 11 11 11 11
0 -0 -0 -0 0 1 2 3 4 6 6 7 7 7 6 6 7 7 8 10 11 11 11 12 12 12 12 12 12 12 12 12 12 12 12 12 12 12 12 12 12 12 12
-0 -0 -0 -0 0 1 2 3 4 6 6 6 6 6 6 6 6 7 8 10 10 11 11 11 11 11 12 12 12 12 11 11 11 12 12 12 13 13 13 13 13 13 13
-1 -1 -1 -0 0 1 2 3 4 5 6 5 5 5 5 5 6 7 8 10 10 10 10 10 11 11 11 11 11 11 11 11 11 12 12 13 13 13 13 13 13 13 13
-1 -1 -1 -0 0 1 2 2 4 5 5 5 5 5 5 5 6 7 8 9 10 10 10 11 11 11 11 11 11 11 11 11 11 12 12 13 13 14 14 14 14 14 14
-1 -1 -1 -0 -0 1 1 2 3 4 5 5 5 5 5 6 6 6 7 8 9 9 10 10 11 11 11 11 11 11 11 11 11 11 12 12 13 14 14 14 14 14 14
-1 -1 -1 -0 -0 1 1 2 3 4 4 5 5 6 6 6 7 7 7 7 8 9 9 10 10 11 11 11 11 11 11 11 11 11 12 12 13 14 14 14 14 14 14
-1 -1 -1 -1 -0 1 2 3 3 4 4 5 5 6 6 6 7 7 7 7 8 8 9 10 10 11 11 11 11 11 11 11 11 11 12 12 13 13 13 13 13 13 12
-2 -1 -1 -1 -0 1 2 3 4 4 5 5 5 6 6 7 7 8 8 8 8 9 10 10 11 11 11 11 11 11 11 11 11 11 12 12 12 13 12 12 11 11 10
-2 -1 -1 -1 0 2 2 4 5 5 5 6 6 6 6 7 8 9 9 10 10 10 11 11 11 11 11 11 11 11 11 11 11 12 12 12 12 12 11 10 10 9 9
-2 -1 -1 -0 1 2 3 4 5 5 5 6 6 6 7 8 9 10 10 10 10 11 11 11 11 10 10 11 11 11 11 11 11 11 12 11 11 10 9 9 8 8 8
-2 -1 -1 -1 0 2 3 4 4 5 5 5 6 7 8 9 10 10 10 10 10 11 11 11 10 10 10 10 10 10 11 11 11 11 11 11 10 9 8 7 7 8 8
-2 -2 -1 -1 -0 1 3 4 4 5 5 6 7 8 9 10 10 10 10 10 10 10 10 10 10 10 10 10 10 10 11 11 11 11 10 10 9 8 7 6 7 7 7
-2 -2 -1 -1 0 2 3 4 5 6 6 7 8 9 10 10 10 10 11 11 11 10 10 10 10 10 10 10 10 11 11 11 11 10 9 9 7 7 6 6 6 6 6
-2 -1 -1 0 1 3 4 5 6 7 8 9 9 10 10 10 11 12 12 12 11 11 11 11 11 11 11 11 10 10 11 11 10 10 9 8 7 6 6 5 5 5 5
-1 -1 0 2 4 5 5 6 7 8 9 10 10 10 11 12 12 13 13 12 12 12 12 11 11 11 11 11 10 10 10 10 10 9 8 7 7 6 5 5 5 5 5
-0 1 2 4 5 6 7 8 9 10 10 10 10 11 12 13 14 13 13 12 12 12 12 12 12 12 11 11 10 10 9 9 9 8 8 7 6 5 5 5 5 5 5
1 2 4 5 6 7 9 10 10 10 10 11 12 13 14 14 14 14 13 13 13 13 12 13 12 12 12 11 10 10 9 8 8 8 7 6 5 5 5 5 5 5 5
3 4 6 7 8 9 10 10 10 11 11 12 13 14 14 14 14 15 15 15 15 15 15 14 14 13 12 11 10 9 8 8 7 7 7 6 5 5 5 5 5 5 5
6 6 7 8 9 10 10 11 11 12 13 14 14 15 15 16 16 16 16 16 16 16 16 15 14 13 12 11 10 9 8 7 7 6 6 5 5 5 5 5 5 5 5
7 7 8 9 9 10 11 12 12 13 14 14 15 16 16 17 17 17 17 16 16 16 16 15 14 13 12 11 10 9 8 7 6 6 5 5 5 5 5 5 5 6 6